When you browse on this site, cookies collect data to enhance your experience and personalize the content and advertising you see.
Visit our Privacy Policy to learn more. By continuing to use the site, you agree to this use of cookies and data.
  • en Suisse
  • Liste des pays
  • À 7 jours
  • Température de l'eau
  • Carte satellitaire
  • Carte météo
  • Widgets météo
  • user-avatar
    Se connecter

    Météo par heure à Jalalabad

    Ce jour, 26 Juin, Mercredi

    Heure Température Précipitation Vent Pression Humidité
    00:00 +33°C° 0 mm 1 m/s 707 mmHg 27%
    01:00 +32°C° 0 mm 1 m/s 707 mmHg 28%
    02:00 +31°C° 0 mm 1 m/s 706 mmHg 29%
    03:00 +31°C° 0 mm 1 m/s 706 mmHg 28%
    04:00 +30°C° 0 mm 1 m/s 706 mmHg 27%
    05:00 +30°C° 0 mm 1 m/s 706 mmHg 26%
    06:00 +31°C° 0 mm 1 m/s 707 mmHg 23%
    07:00 +33°C° 0 mm 1 m/s 707 mmHg 20%
    08:00 +34°C° 0 mm 1 m/s 707 mmHg 16%
    09:00 +35°C° 0 mm 1 m/s 707 mmHg 15%
    10:00 +36°C° 0 mm 1 m/s 706 mmHg 14%
    11:00 +38°C° 0 mm 2 m/s 706 mmHg 12%
    12:00 +39°C° 0 mm 2 m/s 706 mmHg 11%
    13:00 +40°C° 0 mm 2 m/s 706 mmHg 10%
    14:00 +41°C° 0 mm 2 m/s 705 mmHg 8%
    15:00 +41°C° 0 mm 2 m/s 705 mmHg 8%
    16:00 +41°C° 0 mm 2 m/s 704 mmHg 7%
    17:00 +42°C° 0 mm 2 m/s 704 mmHg 7%
    18:00 +40°C° 0 mm 1 m/s 704 mmHg 9%
    19:00 +39°C° 0 mm 1 m/s 704 mmHg 11%
    20:00 +37°C° 0 mm 1 m/s 704 mmHg 13%
    21:00 +36°C° 0 mm 1 m/s 704 mmHg 14%
    22:00 +35°C° 0 mm 1 m/s 704 mmHg 15%
    23:00 +35°C° 0 mm 1 m/s 704 mmHg 16%

    Demain, 27 Juin, Jeudi

    Heure Température Précipitation Vent Pression Humidité
    00:00 +34°C° 0 mm 1 m/s 704 mmHg 17%
    01:00 +34°C° 0 mm 2 m/s 704 mmHg 18%
    02:00 +32°C° 0 mm 2 m/s 704 mmHg 18%
    03:00 +32°C° 0 mm 2 m/s 703 mmHg 19%
    04:00 +31°C° 0 mm 2 m/s 703 mmHg 19%
    05:00 +30°C° 0 mm 2 m/s 703 mmHg 20%
    06:00 +32°C° 0 mm 2 m/s 703 mmHg 18%
    07:00 +35°C° 0 mm 3 m/s 704 mmHg 16%
    08:00 +36°C° 0 mm 3 m/s 704 mmHg 14%
    09:00 +37°C° 0 mm 3 m/s 704 mmHg 12%
    10:00 +39°C° 0 mm 3 m/s 704 mmHg 11%
    11:00 +40°C° 0 mm 3 m/s 704 mmHg 10%
    12:00 +42°C° 0 mm 3 m/s 704 mmHg 9%
    13:00 +41°C° 0 mm 2 m/s 703 mmHg 8%
    14:00 +42°C° 0 mm 2 m/s 703 mmHg 7%
    15:00 +43°C° 0 mm 2 m/s 703 mmHg 7%
    16:00 +43°C° 0 mm 2 m/s 702 mmHg 6%
    17:00 +43°C° 0 mm 2 m/s 702 mmHg 5%
    18:00 +42°C° 0 mm 2 m/s 702 mmHg 7%
    19:00 +40°C° 0 mm 2 m/s 702 mmHg 9%
    20:00 +39°C° 0 mm 2 m/s 702 mmHg 11%
    21:00 +38°C° 0 mm 2 m/s 702 mmHg 13%
    22:00 +37°C° 0 mm 2 m/s 703 mmHg 14%
    23:00 +35°C° 0 mm 1 m/s 703 mmHg 16%

    Après-demain, 28 Juin, Vendredi

    Heure Température Précipitation Vent Pression Humidité
    00:00 +35°C° 0 mm 2 m/s 703 mmHg 16%
    01:00 +34°C° 0 mm 2 m/s 702 mmHg 15%
    02:00 +32°C° 0 mm 2 m/s 702 mmHg 15%
    03:00 +32°C° 0 mm 2 m/s 702 mmHg 16%
    04:00 +31°C° 0 mm 2 m/s 702 mmHg 16%
    05:00 +31°C° 0 mm 2 m/s 702 mmHg 17%
    06:00 +32°C° 0 mm 2 m/s 702 mmHg 15%
    07:00 +35°C° 0 mm 2 m/s 703 mmHg 13%
    08:00 +36°C° 0 mm 2 m/s 703 mmHg 12%
    09:00 +38°C° 0 mm 2 m/s 703 mmHg 11%
    10:00 +39°C° 0 mm 2 m/s 703 mmHg 10%
    11:00 +40°C° 0 mm 2 m/s 703 mmHg 9%
    12:00 +41°C° 0 mm 2 m/s 703 mmHg 8%
    13:00 +42°C° 0 mm 2 m/s 702 mmHg 8%
    14:00 +43°C° 0 mm 1 m/s 702 mmHg 8%
    15:00 +43°C° 0 mm 2 m/s 702 mmHg 8%
    16:00 +44°C° 0 mm 3 m/s 702 mmHg 8%
    17:00 +44°C° 0 mm 4 m/s 701 mmHg 9%
    18:00 +43°C° 0 mm 3 m/s 701 mmHg 13%
    19:00 +40°C° 0 mm 3 m/s 701 mmHg 16%
    20:00 +38°C° 0 mm 2 m/s 701 mmHg 20%
    21:00 +38°C° 0 mm 2 m/s 702 mmHg 21%
    22:00 +36°C° 0 mm 1 m/s 702 mmHg 21%
    23:00 +35°C° 0 mm 1 m/s 702 mmHg 22%

    29 Juin, Samedi

    Heure Température Précipitation Vent Pression Humidité
    00:00 +35°C° 0 mm 1 m/s 702 mmHg 21%
    01:00 +34°C° 0 mm 1 m/s 702 mmHg 21%
    02:00 +34°C° 0 mm 1 m/s 702 mmHg 20%
    03:00 +33°C° 0 mm 1 m/s 702 mmHg 20%
    04:00 +32°C° 0 mm 1 m/s 702 mmHg 19%
    05:00 +32°C° 0 mm 1 m/s 701 mmHg 19%
    06:00 +33°C° 0 mm 1 m/s 702 mmHg 17%
    07:00 +35°C° 0 mm 1 m/s 702 mmHg 14%
    08:00 +37°C° 0 mm 1 m/s 702 mmHg 12%
    09:00 +39°C° 0 mm 1 m/s 702 mmHg 11%
    10:00 +40°C° 0 mm 1 m/s 702 mmHg 10%
    11:00 +42°C° 0 mm 1 m/s 702 mmHg 9%
    12:00 +43°C° 0 mm 3 m/s 702 mmHg 10%
    13:00 +44°C° 0 mm 4 m/s 702 mmHg 11%
    14:00 +45°C° 0 mm 6 m/s 701 mmHg 12%
    15:00 +45°C° 0 mm 5 m/s 701 mmHg 13%
    16:00 +43°C° 0 mm 5 m/s 701 mmHg 14%
    17:00 +43°C° 0 mm 4 m/s 701 mmHg 15%
    18:00 +42°C° 0 mm 3 m/s 701 mmHg 17%
    19:00 +40°C° 0 mm 2 m/s 702 mmHg 19%
    20:00 +37°C° 0 mm 1 m/s 702 mmHg 21%
    21:00 +37°C° 0 mm 1 m/s 702 mmHg 22%
    22:00 +37°C° 0 mm 1 m/s 702 mmHg 23%
    23:00 +36°C° 0 mm 1 m/s 703 mmHg 23%

    30 Juin, Dimanche

    Heure Température Précipitation Vent Pression Humidité
    00:00 +35°C° 0 mm 1 m/s 702 mmHg 24%
    01:00 +34°C° 0 mm 1 m/s 702 mmHg 25%
    02:00 +33°C° 0 mm 1 m/s 701 mmHg 26%
    03:00 +33°C° 0 mm 1 m/s 701 mmHg 26%
    04:00 +33°C° 0 mm 1 m/s 701 mmHg 26%
    05:00 +32°C° 0 mm 1 m/s 701 mmHg 26%
    06:00 +34°C° 0 mm 1 m/s 702 mmHg 24%
    07:00 +35°C° 0 mm 1 m/s 702 mmHg 21%
    08:00 +37°C° 0 mm 1 m/s 702 mmHg 18%
    09:00 +39°C° 0 mm 1 m/s 702 mmHg 17%
    10:00 +41°C° 0 mm 1 m/s 702 mmHg 15%
    11:00 +42°C° 0 mm 1 m/s 702 mmHg 13%
    12:00 +43°C° 0 mm 1 m/s 702 mmHg 12%
    13:00 +44°C° 0 mm 1 m/s 702 mmHg 11%
    14:00 +45°C° 0 mm 1 m/s 701 mmHg 10%
    15:00 +46°C° 0 mm 2 m/s 701 mmHg 10%
    16:00 +47°C° 0 mm 2 m/s 701 mmHg 10%
    17:00 +47°C° 0 mm 3 m/s 701 mmHg 10%
    18:00 +46°C° 0 mm 2 m/s 701 mmHg 11%
    19:00 +43°C° 0 mm 2 m/s 701 mmHg 13%
    20:00 +42°C° 0 mm 2 m/s 701 mmHg 15%
    21:00 +41°C° 0 mm 2 m/s 701 mmHg 15%
    22:00 +40°C° 0 mm 2 m/s 701 mmHg 16%
    23:00 +39°C° 0 mm 2 m/s 702 mmHg 16%

    1 Juillet, Lundi

    Heure Température Précipitation Vent Pression Humidité
    00:00 +38°C° 0 mm 2 m/s 702 mmHg 16%
    01:00 +38°C° 0 mm 2 m/s 701 mmHg 17%
    02:00 +37°C° 0 mm 2 m/s 701 mmHg 17%
    03:00 +36°C° 0 mm 2 m/s 701 mmHg 17%
    04:00 +35°C° 0 mm 2 m/s 701 mmHg 18%
    05:00 +34°C° 0 mm 2 m/s 701 mmHg 18%
    06:00 +36°C° 0 mm 2 m/s 702 mmHg 16%
    07:00 +38°C° 0 mm 2 m/s 702 mmHg 13%
    08:00 +39°C° 0 mm 2 m/s 703 mmHg 11%
    09:00 +42°C° 0 mm 3 m/s 703 mmHg 10%
    10:00 +43°C° 0 mm 3 m/s 702 mmHg 9%
    11:00 +45°C° 0 mm 3 m/s 702 mmHg 8%
    12:00 +46°C° 0 mm 3 m/s 702 mmHg 7%
    13:00 +47°C° 0 mm 3 m/s 702 mmHg 6%
    14:00 +47°C° 0 mm 3 m/s 701 mmHg 5%
    15:00 +48°C° 0 mm 2 m/s 701 mmHg 5%
    16:00 +48°C° 0 mm 2 m/s 701 mmHg 5%
    17:00 +48°C° 0 mm 2 m/s 701 mmHg 4%
    18:00 +46°C° 0 mm 3 m/s 701 mmHg 6%
    19:00 +45°C° 0 mm 3 m/s 701 mmHg 7%
    20:00 +43°C° 0 mm 3 m/s 701 mmHg 9%
    21:00 +42°C° 0 mm 3 m/s 701 mmHg 9%
    22:00 +41°C° 0 mm 4 m/s 702 mmHg 10%
    23:00 +40°C° 0 mm 4 m/s 702 mmHg 10%
    Voir plus